Seattle, WA
on Wednesday, November 7, 2012

Wednesday
Previous Day Next Day
Daily Summary
 ActualAverageRecord
Temperature
Mean Temperature °F 47°F  
Max Temperature 54°F 53°F 62°F (2008)
Min Temperature 39°F 42°F 31°F (1952)
Degree Days
Heating Degree Days 18 18  
Month to date heating degree days 79 119  
Since 1 July heating degree days 572 716  
Cooling Degree Days 0 0  
Month to date cooling degree days 0 0  
Year to date cooling degree days 177 189  
Moisture
Dew Point 39°F   
Average Humidity 68    
Maximum Humidity 86    
Minimum Humidity 50    
Precipitation
Precipitation T in 0.20 in 1.93 in (1995)
Month to date precipitation 0.98 1.39  
Year to date precipitation 34.11 26.96  
Snow
Snow 0.00 in in T in (1945)
Month to date snowfall 0.0  
Since 1 July snowfall 0.0  
Snow Depth 0.00 in   
Wind
Wind Speed 8 mph   
Max Wind Speed 18 mph   
Max Gust Speed 23 mph   
Visibility 10 miles   
Events     

Key: T is trace of precipitation, MM is missing value
Source: NWS Daily Summary
Time(PST)TemperatureDew PointHumidity Pressure Visibility Wind DirectionWind SpeedGust SpeedPrecipitationEvents Conditions
12:53 AM 48.9°F 43.0°F 80% 30.06 in 10.0 miles SSW 13.8 mph 23.0 mph N/A   Clear
1:53 AM 48.9°F 43.0°F 80% 30.06 in 10.0 miles SSW 18.4 mph - N/A   Clear
2:53 AM 48.0°F 42.1°F 80% 30.09 in 10.0 miles SSW 10.4 mph 19.6 mph N/A   Clear
3:53 AM 46.9°F 41.0°F 80% 30.10 in 10.0 miles SW 13.8 mph - N/A   Clear
4:43 AM 46.4°F 41.0°F 81% 30.10 in 10.0 miles SSW 9.2 mph - N/A   Mostly Cloudy
4:53 AM 46.9°F 41.0°F 80% 30.13 in 10.0 miles South 4.6 mph - N/A   Mostly Cloudy
5:53 AM 46.9°F 41.0°F 80% 30.14 in 10.0 miles South 8.1 mph - N/A   Mostly Cloudy
6:53 AM 45.0°F 39.9°F 82% 30.14 in 10.0 miles South 6.9 mph - N/A   Mostly Cloudy
7:53 AM 46.0°F 41.0°F 83% 30.16 in 10.0 miles South 4.6 mph - N/A   Mostly Cloudy
8:12 AM 46.4°F 39.2°F 76% 30.13 in 10.0 miles South 8.1 mph - N/A   Mostly Cloudy
8:48 AM 48.2°F 39.2°F 71% 30.13 in 10.0 miles SSW 11.5 mph - N/A   Mostly Cloudy
8:53 AM 48.0°F 41.0°F 77% 30.15 in 10.0 miles SSW 10.4 mph - N/A   Mostly Cloudy
9:53 AM 48.0°F 39.9°F 74% 30.16 in 10.0 miles SSW 6.9 mph - N/A   Mostly Cloudy
10:53 AM 50.0°F 39.9°F 68% 30.16 in 10.0 miles South 10.4 mph - N/A   Mostly Cloudy
11:46 AM 51.8°F 39.2°F 62% 30.13 in 10.0 miles SSW 8.1 mph - N/A   Mostly Cloudy
11:53 AM 52.0°F 39.9°F 63% 30.15 in 10.0 miles SSW 10.4 mph - N/A   Mostly Cloudy
12:53 PM 53.1°F 37.9°F 57% 30.14 in 10.0 miles SSW 11.5 mph - N/A   Mostly Cloudy
1:53 PM 53.1°F 37.9°F 57% 30.13 in 10.0 miles SSW 11.5 mph - N/A   Scattered Clouds
2:53 PM 52.0°F 34.0°F 50% 30.11 in 10.0 miles SSW 10.4 mph - N/A   Scattered Clouds
3:53 PM 51.1°F 34.0°F 52% 30.10 in 10.0 miles SW 8.1 mph - N/A   Scattered Clouds
4:53 PM 50.0°F 35.1°F 57% 30.09 in 10.0 miles Calm Calm - N/A   Scattered Clouds
5:53 PM 46.9°F 37.0°F 68% 30.07 in 10.0 miles SSW 3.5 mph - N/A   Scattered Clouds
6:53 PM 46.9°F 36.0°F 66% 30.07 in 10.0 miles Calm Calm - N/A   Scattered Clouds
7:53 PM 48.0°F 37.0°F 66% 30.05 in 10.0 miles Calm Calm - 0.00 in   Scattered Clouds
8:53 PM 44.1°F 37.0°F 76% 30.04 in 10.0 miles ESE 6.9 mph - N/A   Partly Cloudy
9:53 PM 43.0°F 37.0°F 80% 30.02 in 10.0 miles ESE 8.1 mph - N/A   Partly Cloudy
10:53 PM 42.1°F 36.0°F 79% 30.00 in 10.0 miles Calm Calm - N/A   Partly Cloudy
11:53 PM 41.0°F 35.6°F 81% 29.94 in 10.0 miles ESE 5.8 mph - N/A   Clear
Moon Phase
Nov. 07 Nov. 13 Nov. 20 Nov. 28 Dec. 06
Sunrise:07:02 AM (PST) Moon Rise:No Moon Rise/
Sunset:04:42 PM (PST) Moon Set:01:19 PM (PST)11/7

Copyright © 2014 The Weather Underground, Inc.